Torna al catalogo

COSMOS 412

AttivoMilitareLEO
NORAD 5211·PAYLOAD·🇷🇺 Russia

Lanciato May 7, 1971 da Plesetsk Cosmodrome

Loading…

Prossimi Passaggi (prossime 24 ore)

TLE

AggiornatoSource: Space-Track

Epoca: Sep 14, 2026, 06:27 UTC

1 05211U 71041B   26257.26883568  .00000001  00000-0  12642-3 0  9999
2 05211  74.0197 347.5288 0035786 321.3328  65.9908 12.39885209744602

Traccia COSMOS 412 in tempo reale con AllMySat

Download on the App Store